FW0311 Weather Reports


Display with metric or nautical units.
time (UTC)temp
F
wind
direction
speed
MPH
gust
MPH
rain 1hr
in
rain 24hr
in
rain mn
in
humidity
%
barometer
mb
20260504234549 70 221 5.0 16.0 0.00 0.00 0.00 48 1007.9
20260504233049 71 223 5.0 14.0 0.00 0.00 0.00 47 1007.9
20260504231549 72 244 5.0 18.0 0.00 0.00 0.00 46 1007.6
20260504230051 72 186 6.0 18.0 0.00 0.00 0.00 45 1007.5
20260504224549 72 234 9.0 17.0 0.00 0.00 0.00 45 1007.4
20260504223047 72 237 4.0 19.0 0.00 0.00 0.00 49 1007.3
20260504221545 72 199 8.0 14.0 0.00 0.00 0.00 48 1007.4
20260504220046 73 177 5.0 16.0 0.00 0.00 0.00 48 1007.4
20260504214552 74 246 4.0 17.0 0.00 0.00 0.00 46 1007.5
20260504213043 74 246 8.0 22.0 0.00 0.00 0.00 46 1007.5
20260504211540 74 210 7.0 16.0 0.00 0.00 0.00 45 1007.6
20260504210054 74 180 5.0 16.0 0.00 0.00 0.00 46 1007.6
20260504204553 74 208 8.0 16.0 0.00 0.00 0.00 44 1007.7
20260504203041 74 227 5.0 12.0 0.00 0.00 0.00 43 1007.7
20260504201533 74 195 10.0 22.0 0.00 0.00 0.00 42 1007.8
20260504200030 74 225 5.0 16.0 0.00 0.00 0.00 43 1008.1
20260504194528 73 204 6.0 17.0 0.00 0.00 0.00 45 1008.2
20260504193026 72 263 6.0 16.0 0.00 0.00 0.00 44 1008.5
20260504191524 73 230 13.0 19.0 0.00 0.00 0.00 43 1008.8
20260504190022 73 242 7.0 16.0 0.00 0.00 0.00 42 1008.9
20260504184519 73 204 5.0 24.0 0.00 0.00 0.00 41 1009.0
20260504183016 73 246 7.0 22.0 0.00 0.00 0.00 41 1009.3
20260504181515 73 244 7.0 22.0 0.00 0.00 0.00 42 1009.4
20260504180011 72 169 7.0 19.0 0.00 0.00 0.00 44 1009.9
20260504174509 71 251 7.0 19.0 0.00 0.00 0.00 45 1010.0
20260504173005 71 248 7.0 18.0 0.00 0.00 0.00 45 1010.2
20260504171503 70 236 7.0 24.0 0.00 0.00 0.00 47 1010.6
20260504081541 40 209 0.0 3.0 0.00 0.00 0.00 78 1014.3
20260504050008 44 232 0.0 3.0 0.00 0.00 0.00 68 1015.3
20260504044512 45 232 0.0 3.0 0.00 0.00 0.00 66 1015.2
20260504043001 46 232 0.0 2.0 0.00 0.00 0.00 64 1015.2
20260504041604 47 232 0.0 0.0 0.00 0.00 0.00 62 1015.1
20260504040055 49 232 2.0 4.0 0.00 0.00 0.00 58 1015.2
20260504034604 49 202 5.0 9.0 0.00 0.00 0.00 56 1015.1
20260504033052 49 195 2.0 5.0 0.00 0.00 0.00 57 1015.2
20260504031551 49 205 0.0 6.0 0.00 0.00 0.00 58 1015.2
20260504030050 48 190 0.0 5.0 0.00 0.00 0.00 58 1015.1
20260504024553 48 191 0.0 4.0 0.00 0.00 0.00 58 1015.3
20260504023050 49 190 1.0 4.0 0.00 0.00 0.00 58 1015.3
20260504021552 49 190 0.0 2.0 0.00 0.00 0.00 57 1015.2
20260504020056 49 190 3.0 7.0 0.00 0.00 0.00 57 1015.2
20260504014547 50 193 1.0 4.0 0.00 0.00 0.00 56 1015.2
20260504013105 50 193 1.0 5.0 0.00 0.00 0.00 55 1015.1
20260504011546 51 196 2.0 5.0 0.00 0.00 0.00 54 1015.0
20260504010046 51 199 2.0 6.0 0.00 0.00 0.00 53 1015.0
20260504004546 52 192 1.0 7.0 0.00 0.00 0.00 52 1015.1
20260504003045 53 238 2.0 7.0 0.00 0.00 0.00 50 1014.9
20260504001547 53 229 3.0 8.0 0.00 0.00 0.00 49 1014.8
20260504000044 54 254 4.0 12.0 0.00 0.00 0.00 48 1014.7